Regional Weather Roundup
Issued by NWS

Home | Current Version | Previous Version | Text Only | Print | Product List | Glossary On
Versions: 1 2 3 4 5 6 7 8 9 10 11 12 13 14 15 16 17 18 19 20 21 22 23 24 25 26 27 28 29 30 31 32 33 34 35 36 37 38 39 40 41 42 43 44 45 46 47 48 49 50
000
ASHW40 PHFO 230543
RWRHI

WEATHER ROUNDUP FOR HAWAII
NATIONAL WEATHER SERVICE HONOLULU HI
700 PM HST WED OCT 22 2014

THIS IS AN AUTOMATED REPORT THAT HAS NOT BEEN QUALITY CONTROLLED.

NOTE..."FAIR" INDICATES FEW OR NO CLOUDS BELOW 12,000 FEET WITH NO
SIGNIFICANT WEATHER AND/OR OBSTRUCTIONS TO VISIBILITY.

* - THESE SITES REPORT LIMITED FIELDS

HIZ001>004-230600-
KAUAI-NIIHAU-

CITY           SKY/WX    TMP DP  RH WIND       PRES   REMARKS
LIHUE APT      PTCLDY    79  73  83 E8        30.01R
PORT ALLEN*      N/A     79 N/A N/A E3          N/A
POIPU*           N/A     75 N/A N/A NW1         N/A
PRINCEVILLE*     N/A     77 N/A N/A MISG        N/A
KOKOLE POINT*  NOT AVBL
MOLOAA DAIRY*  NOT AVBL
WAIMEA HTS*      N/A     73  70  88 VRB3        N/A
PUU OPAE*        N/A     70  68  94 CALM        N/A
PUU LUA*       NOT AVBL
MAKAHA RIDGE*  NOT AVBL
$$

HIZ005>011-230600-
OAHU-

CITY           SKY/WX    TMP DP  RH WIND       PRES   REMARKS
HONOLULU       RAIN      76  74  93 NE5       30.01R
KALAELOA       MOCLDY    76  73  91 CALM      30.01R
KANEOHE MCB    LGT RAIN  78  74  87 SE5       30.02R
WHEELER FIELD  MOCLDY    73  72  94 CALM      30.03
BELLOWS*         N/A    N/A N/A N/A E12         N/A
KAHUKU*          N/A    N/A N/A N/A E3G9        N/A
WHEELER*       NOT AVBL
WAIANAE HARBOR NOT AVBL
DILLINGHAM*      N/A     84  82  94 CALM        N/A  HX 101
KAHUKU TRN*      N/A     73  73 100 SE3G12      N/A
KAWAILOA*        N/A     72  72 100 E3          N/A
KII*             N/A     75  73  94 SE8G15      N/A
MAKUA RANGE*     N/A     77  73  88 SE3         N/A
OAHU FOREST NW   N/A     68  68 100 VRB8G17     N/A
SCHOFIELD BRK*   N/A     73  73 100 CALM        N/A
SCHOFIELD S*   NOT AVBL
WAIANAE VLY*     N/A     72  70  94 N3          N/A
KUAOKALA*        N/A     73  70  88 CALM        N/A
HONOULIUULI*   NOT AVBL
MOKUOLOE IS*   NOT AVBL
PALEHUA*         N/A     82  73  74 CALM        N/A
WAIAWA PHB*    NOT AVBL
$$

HIZ012>013-230600-
MOLOKAI-

CITY           SKY/WX    TMP DP  RH WIND       PRES   REMARKS
MOLOKAI AIRPT  MOCLDY    73  73 100 NW3       30.03R
KALAUPAPA      NOT AVBL
MAKAPULAPAI*     N/A     79  72  78 E14G21      N/A
MOLOKAI 1*       N/A     68  68 100 CALM        N/A
PUU ALII*        N/A     63  63  99 E1G7        N/A
$$

HIZ016-230600-
KAHOOLAWE-

CITY           SKY/WX    TMP DP  RH WIND       PRES   REMARKS
KAHOOLAWE*       N/A     72 N/A N/A E8          N/A
HAKIOAWA*      NOT AVBL
HONOKANAIA*      N/A     74  71  90 VRB3      30.02R
KANELOA*         N/A     75  72  88 E14G22    29.22S
KEALIALALO*    NOT AVBL
LUA MAKIKA*    NOT AVBL
$$

HIZ014>015-230600-
LANAI-

CITY           SKY/WX    TMP DP  RH WIND       PRES   REMARKS
LANAI CITY     NOT AVBL
LANAI 1*         N/A     72  72 100 E7G13       N/A
$$

HIZ017>028-230600-
MAUI-

CITY           SKY/WX    TMP DP  RH WIND       PRES   REMARKS
KAHULUI        MOCLDY    76  72  87 CALM      30.01R
KAPALUA-W MAUI NOT AVBL
HANA AIRPORT   CLOUDY    75  72  88 CALM      30.06R
HANA*            N/A     77 N/A N/A S2          N/A
HALEAKALA SUMM   N/A     46  46 100 NE14        N/A
MAALAEA BAY*   NOT AVBL
HALEAKALA*     NOT AVBL
KAUPO GAP*       N/A     63  63 100 CALM        N/A
KULA 1*          N/A     58  57  97 CALM        N/A
$$

HIZ023>026-230600-
BIG ISLAND OF HAWAII COAST AND LOWER SLOPES-

CITY           SKY/WX    TMP DP  RH WIND       PRES   REMARKS
KAILUA KONA    CLEAR     82  71  69 S8        29.97R
HILO           CLOUDY    76  69  79 SW9       30.02R
HONOKAA*       NOT AVBL
KAWAIHAE MWT*    N/A     84 N/A N/A SW5         N/A
KAWAIHAE*        N/A     84 N/A N/A S1          N/A
SOUTH POINT*     N/A     72 N/A N/A NE10G16     N/A
UPOLU AIRPORT*   N/A    N/A N/A N/A E13         N/A
KAMUELA*       MOCLDY    66  64  94 NE7       30.13R
HAKALAU*         N/A     57  56  98 CALM        N/A
KALOKO-HONOKO*   N/A     79  70  73 SE3       29.97R
PALI 2*          N/A     66 -11   4 E3G10       N/A
KEALAKOMO*       N/A     81  66  61 NE12G18     N/A
KAUPULEHU*       N/A     73  66  78 SE7         N/A
KAPAPALA*        N/A     69  67  94 NW1         N/A
LOWER KAHUKU*  NOT AVBL
PUHE CS*       NOT AVBL
PUHO CS*         N/A     79  70  73 E2          N/A
PTA KEAMUKU*     N/A     66  64  94 E3          N/A
WAIKOLOA*        N/A     77  66  69 E8          N/A
$$

HIZ027>028-230600-
BIG ISLAND OF HAWAII INTERIOR AND SUMMMITS-

CITY           SKY/WX    TMP DP  RH WIND       PRES   REMARKS
BRADSHAW FIELD CLOUDY    61  59  94 SW1       30.38R
MK VISITOR CEN NOT AVBL
MAUNA KEA*       N/A     37  27  65 W1          N/A
MAUNA LOA*       N/A     45  37  76 MISG        N/A
MAUNA LOA 1*     N/A     45  41  87 MISG        N/A
PTA KIPUKA*      N/A     61  59  94 N1G7        N/A
PTA RANGE 17*    N/A     66  66 100 W3G9        N/A
PTA WEST*        N/A     63  63 100 CALM        N/A
NENE CABIN*      N/A     57  57 100 E3          N/A
AHUMOA*          N/A     58  58 100 NE3         N/A
PTA PORTABLE*  NOT AVBL
PUU MALI*      NOT AVBL
$$

HIC003-230600-
NORTHWEST ISLANDS-

CITY           SKY/WX    TMP DP  RH WIND       PRES   REMARKS
MIDWAY ISLAND  CLEAR     82  79  89 S7        29.92R HX  93
MIDWAY NOS*    NOT AVBL
FRENCH FRIGATE NOT AVBL
$$

PHZ110>124-180-230600-
BUOY REPORTS

STATION/POSITION TIME  TEMP    WIND        PRES    WAVE   SWELL
                       AIR SEA DIR/SP/G            HT/PER HT/DIR
                 (UTC) (F)     (DEG/KT/KT) (MB)    (FT/S) (FT/D)
BUOY 51001       NOT AVBL
BUOY 51101       NOT AVBL
BUOY 51100       0500   79 80   90/ 14/ 16 1017.4R
BUOY 51003       0500   81 82   80/ 12/ 14 1014.8R   5/11   5
BUOY 51004       0421   79 81   50/ 12/ 14 1014.7R   6/11   5/360
BARBERS PT BUOY  NOT AVBL
WAIMEA BAY BUOY  0500      81                N/A     5/11   2/360
KAILUA BAY BUOY  0500      82                N/A     5/10   2/ 10
LANAI BUOY       0500      82                N/A     3/11   2/190
BARBERS PT 2     0500      82                N/A     4/13   3/190
PAUWELA MAUI     0500      81                N/A     5/11   2/360
HILO             0500      81                N/A     6/11   3/360
KANEOHE BAY BUOY NOT AVBL
HANALEI KAUAI    NOT AVBL
KAHULUI HARBOR   0500   76 81  290/  7/  8 1016.2R
HONOLULU HARBOR  0500   76      CALM  /  2 1016.6R
KILO NALU        NOT AVBL
HILO HARBOR      0500   76     240/  8/ 10 1016.4R
MOKUOLOE         0500   76     270/  3/  6   N/A
NAWILIWILI       0500      82                N/A
WHOTS BUOY       NOT AVBL
BUOY 51028       NOT AVBL
$$

......................KEY........................................
  SKY/WX - SKY CONDITIONS/PRESENT WEATHER
  TMP    - TEMPERATURE IN FAHRENHEIT
  DWPT   - DEWPOINT IN FAHRENHEIT
  RH     - RELATIVE HUMIDITY IN PERCENT
  WIND   - DIRECTION AND SPEED /MPH FOR ISLANDS...KTS FOR BUOYS/
  PRES   - MEAN SEA LEVEL PRESSURE IN INCHES OF HG
  VSB    - VISIBILITY IN MILES
  HX     - HEAT INDEX
  WCI    - WIND CHILL INDEX
  VRB    - VARIABLE WIND DIRECTION
  N/A    - NOT AVAILABLE



USA.gov is the U.S. government's official web portal to all federal, state and local government web resources and services.